Weather History for KP69 - November, 2012

Change the Weather History Date:

Saturday, November 10, 2012

  Actual Average Record
Temperature  
Mean Temperature 33 °F -  
Max Temperature 36 °F 46 °F 53 °F (2013)
Min Temperature 30 °F 32 °F 21 °F (2000)
Degree Days  
Heating Degree Days 32    
Moisture  
Dew Point 30 °F    
Average Humidity 86    
Maximum Humidity 92    
Minimum Humidity 73    
Precipitation  
Precipitation 0.06 in - - ()
Sea Level Pressure  
Sea Level Pressure 30.08 in    
Wind  
Wind Speed 1 mph (NNW)    
Max Wind Speed 6 mph    
Max Gust Speed -    
Averages and records for this station are not official NWS values.
T = Trace of Precipitation, MM = Missing Value Source: NWS Daily Summary

Daily Weather History Graph

Daily Weather History Graph

Search for Another Location

Airport or City:

Trip Planner

Search our weather history database for the weather conditions in past years. The results will help you decide how hot, cold, wet, or windy it might be!

Date:

Astronomy

Nov. 10, 2012 Rise Set
Actual Time 7:36 AM MST 5:15 PM MST
Civil Twilight 7:04 AM MST 5:47 PM MST
Nautical Twilight 6:28 AM MST 6:23 PM MST
Astronomical Twilight 5:53 AM MST 6:58 PM MST
Moon 3:35 AM MST (11/10) 3:13 PM MST (11/10)
Length of Visible Light 10h 42m
Length of Day
9h 38m
Waning Crescent, 14% of the Moon is Illuminated
Nov 10
Waning Crescent
Nov 13
New
Nov 20
First Quarter
Nov 28
Full
Dec 6
Last Quarter

Hourly Weather History & Observations

Time (MST) Temp. Windchill Dew Point Humidity Pressure Visibility Wind Dir Wind Speed Gust Speed Precip Events Conditions
12:52 AM 35.1 °F - 32.0 °F 89% 29.92 in - Calm Calm - N/A   Unknown
1:52 AM 35.1 °F - 32.0 °F 89% 29.92 in - Calm Calm - N/A   Unknown
2:52 AM 34.0 °F - 32.0 °F 92% 29.94 in - Calm Calm - N/A   Unknown
3:52 AM 34.0 °F - 32.0 °F 92% 29.94 in - Calm Calm - N/A   Unknown
4:52 AM 34.0 °F - 30.9 °F 89% 29.95 in - Calm Calm - N/A   Unknown
5:52 AM 34.0 °F 31.0 °F 30.0 °F 85% 29.96 in - NNW 3.5 mph - N/A   Unknown
6:52 AM 34.0 °F 31.0 °F 28.9 °F 82% 29.98 in - NNW 3.5 mph - N/A   Unknown
7:52 AM 34.0 °F 28.8 °F 26.1 °F 73% 29.99 in - North 5.8 mph - N/A   Unknown
8:52 AM 34.0 °F 28.8 °F 26.1 °F 73% 30.01 in - NNW 5.8 mph - N/A   Unknown
9:52 AM 30.9 °F 27.5 °F 28.0 °F 89% 30.04 in - Variable 3.5 mph - 0.05 in   Unknown
10:52 AM 33.1 °F 30.0 °F 28.0 °F 82% 30.06 in - NNE 3.5 mph - 0.01 in   Unknown
11:52 AM 35.1 °F - 28.0 °F 76% 30.06 in - Calm Calm - N/A   Unknown
12:52 PM 36.0 °F - 30.0 °F 79% 30.07 in - Calm Calm - N/A   Unknown
1:52 PM 34.0 °F - 30.9 °F 89% 30.09 in - Calm Calm - N/A   Unknown
2:52 PM 34.0 °F - 30.0 °F 85% 30.11 in - Calm Calm - N/A   Unknown
3:52 PM 34.0 °F - 30.0 °F 85% 30.13 in - Calm Calm - N/A   Unknown
4:52 PM 34.0 °F - 30.9 °F 89% 30.15 in - Calm Calm - N/A   Unknown
5:52 PM 34.0 °F - 30.9 °F 89% 30.17 in - Calm Calm - N/A   Unknown
6:52 PM 33.1 °F - 30.9 °F 92% 30.19 in - Calm Calm - N/A   Unknown
7:52 PM 33.1 °F - 30.9 °F 92% 30.22 in - Calm Calm - N/A   Unknown
8:52 PM 33.1 °F - 30.9 °F 92% 30.23 in - Calm Calm - N/A   Unknown
9:52 PM 33.1 °F - 30.0 °F 89% 30.25 in - Calm Calm - N/A   Unknown
10:52 PM 32.0 °F - 28.9 °F 88% 30.25 in - Calm Calm - N/A   Unknown
11:52 PM 32.0 °F - 28.9 °F 88% 30.27 in - Calm Calm - N/A   Unknown